Regional Weather Roundup
Issued by NWS Wakefield, VA

Home | Current Version | Previous Version | Graphics & Text | Print | Product List | Glossary On
Versions: 1 2 3 4 5 6 7 8 9 10 11 12 13 14 15 16 17 18 19 20 21 22 23 24 25 26 27 28 29 30 31 32 33 34 35 36 37 38 39 40 41 42 43 44 45 46 47 48 49 50
000
ASUS41 KAKQ 061515
RWRAKQ

REGIONAL WEATHER ROUNDUP
NATIONAL WEATHER SERVICE WAKEFIELD VA
1100 AM EDT MON JUL 06 2015

Note: "fair" indicates few or no clouds below 12,000 feet with no
significant weather and/or obstructions to visibility. * = Denotes
station may not report precipitation (e.g., rain,snow,etc.),
thunder or fog.

VAZ042-051-052>054-056-061600-
NORTHERN VIRGINIA

CITY           SKY/WX    TMP DP  RH WIND       PRES   REMARKS
WASH NATIONAL  PTSUNNY   82  72  71 S10       30.12F
DULLES         CLOUDY    78  70  76 S8        30.11F
FORT BELVOIR   PTSUNNY   80  71  75 SE6       30.12S
QUANTICO       PTSUNNY   79  71  76 S9        30.13S
FREDERICKSBRG* PTSUNNY   81  74  80 S7        30.11F
STAFFORD*      CLOUDY    77  70  78 S5        30.16S
WARRENTON      CLOUDY    79  74  83 SE6       30.11F
CULPEPER*      CLOUDY    76  70  84 S5        30.12F
MANASSAS*      CLOUDY    79  73  83 S7        30.12S
LEESBURG*      PTSUNNY   79  73  83 S12       30.12F
WINCHESTER     CLOUDY    79  72  78 SE9       30.11F
FRONT ROYAL*   CLOUDY    77  70  78 SE3       30.10F
LURAY*         CLOUDY    77  72  83 SW6       30.11F
$$

VAZ048-049-060>072-079>083-061600-
CENTRAL AND SOUTH CENTRAL VIRGINIA

CITY           SKY/WX    TMP DP  RH WIND       PRES   REMARKS
RICHMOND       CLOUDY    80  73  79 S9        30.12F
CHESTERFIELD*  NOT AVBL
PETERSBURG*    CLOUDY    80  77  89 S8        30.14R
HANOVER        PTSUNNY   80  72  76 VRB6      30.14S
TAPPAHANNOCK*  PTSUNNY   81  71  73 SE8       30.14S
QUINTON*         N/A     80  74  80 CALM      30.13
CHARLOTTSVILLE PTSUNNY   76  70  82 SE7       30.12S
GORDONSVILLE*  CLOUDY    75  70  83 SW7       30.11F
ORANGE*        CLOUDY    77  72  83 CALM      30.13F
LOUISA*        CLOUDY    75  72  88 CALM      30.12S
BUMPASS*       CLOUDY    75  71  86 SE5       30.13R
FARMVILLE*     LGT RAIN  74  74  99 S5        30.11S
CREWE*         CLOUDY    76  72  88 S5        30.13S
FORT PICKETT*  CLOUDY    77  73  87 S8        30.14S
CHASE CITY*    PTSUNNY   80  75  86 S5        30.13S
CLARKSVILLE*   PTSUNNY   79  70  73 S7        30.13S
SOUTH HILL*    PTSUNNY   78  72  81 S7        30.20S
LAWRENCEVILLE* NOT AVBL
EMPORIA*         N/A     79  72  78 S6        30.15S
$$

VAZ088>098-061600-
SOUTHEAST VIRGINIA

CITY           SKY/WX    TMP DP  RH WIND       PRES   REMARKS
NORFOLK        PTSUNNY   85  73  67 S12       30.13S
VIRGINIA BEACH PTSUNNY   87  73  62 S10       30.13S
NORFOLK NAVAL  PTSUNNY   83  73  72 SW9       30.14S
WEST POINT*    PTSUNNY   82  73  72 SE6       30.15S
SALUDA*        FAIR      81  73  76 S9        30.13S
NEWPORT NEWS   PTSUNNY   82  74  76 S9        30.13S
LANGLEY AFB    PTSUNNY   82  75  79 S8        30.12R
FORT EUSTIS    PTSUNNY   81  81 100 S8        30.12R
WILLIAMSBURG*  PTSUNNY   84  77  79 S6        30.14S
HR EXEC AP*    PTSUNNY   82  75  78 SW6       30.15S
FRANKLIN*      CLOUDY    81  74  79 SW5       30.15R
WAKEFIELD      PTSUNNY   82  74  76 SW7       30.14S
$$

VAZ020-022-025-037-045-061600-
WEST CENTRAL AND SOUTHWEST VIRGINIA

CITY           SKY/WX    TMP DP  RH WIND       PRES   REMARKS
STAUNTON*      CLOUDY    77  69  76 S7        30.13F
WAYNESBORO*    PTSUNNY   74  67  79 SE12      30.13F
HOT SPRINGS VA FOG       65  65 100 S3        30.21S VSB 1/2
LYNCHBURG      CLOUDY    72  69  90 SE5       30.13F
DANVILLE       CLOUDY    78  69  73 SW7       30.12S
SOUTH BOSTON*  PTSUNNY   78  69  75 MISG      30.12F
MARTINSVILLE   CLOUDY    78  71  80 SW5       30.15S
ROANOKE        PTSUNNY   72  69  90 S7        30.13F
BLACKSBURG     CLOUDY    71  69  91 W3        30.19S
DUBLIN*        CLOUDY    73  73  99 CALM      30.18S
MARION*        CLOUDY    71  65  83 W12       30.22S
HILLSVILLE*    CLOUDY    69  65  86 W6        30.19S
RICHLANDS*     PTSUNNY   69  64  84 W10G16    30.21R
WISE*          CLOUDY    72  64  78 W8        30.22F
ABINGDON*      PTSUNNY   73  66  79 W7        30.20S
$$

MDZ021>025-VAZ099-100-061600-
SOUTHERN MARYLAND AND THE DELMARVA PENINSULA

CITY           SKY/WX    TMP DP  RH WIND       PRES   REMARKS
PATUXENT RIVER CLOUDY    80  71  74 VRB7      30.13S
BAY BRIDGE APT   N/A     79  72  78 SE8       30.13S
LEONARDTOWN    CLOUDY    79  70  73 S8        30.15S
DOVER          PTSUNNY   80  73  80 S5        30.13S
GEORGETOWN     PTSUNNY   81  71  71 S9        30.15S
EASTON         CLOUDY    82  73  74 S9        30.17S
CAMBRIDGE      PTSUNNY   81  70  69 S6        30.13S
SALISBURY      PTSUNNY   80  72  76 S9        30.14S
OCEAN CITY     CLOUDY    80  75  84 S7        30.15S
WALLOPS ISLAND PTSUNNY   81  73  76 S8        30.15S
ACCOMACK*      PTSUNNY   81  77  89 S8        30.14S
$$

NCZ012>017-030>032-061600-
NORTH CENTRAL AND EASTERN NORTH CAROLINA

CITY           SKY/WX    TMP DP  RH WIND       PRES   REMARKS
ROANOKE RAPIDS PTSUNNY   79  73  83 SW7       30.14S
RALEIGH        MOSUNNY   81  72  74 SW12      30.15R
ELIZABETH CITY MOSUNNY   84  74  71 S9        30.15S
AHOSKIE*       SUNNY    N/A N/A N/A S5        30.14S
EDENTON*         N/A     83  74  74 SW5       30.15R
CURRITUCK*     MOSUNNY   84  71  65 SW6       30.16R
KILL DEVIL HLS MOSUNNY   89  73  59 S6        30.15R HX  97
MANTEO         RAIN      80  74  82 SW25G32   30.17R
CAPE HATTERAS  MOSUNNY   81  74  79 S8        30.17F
TARBORO*         N/A     85  73  66 S7        30.15S
GOLDSBORO      MOSUNNY   85  72  64 SW6       30.13S
WASHINGTON     SUNNY     83  71  67 S8        30.15S
GREENVILLE     MOSUNNY   82  73  74 W8        30.15F
NEW BERN       MOSUNNY   85  72  65 SW10G17   30.16F
WILMINGTON     LGT RAIN  83  72  69 W10       30.15F
$$

VAZ048-061600-
ELSEWHERE

CITY           SKY/WX    TMP DP  RH WIND       PRES   REMARKS
HARRISBURG PA  CLOUDY    77  70  79 SE6       30.12F
BALTIMORE      PTSUNNY   79  71  76 SE7       30.12S
ANNAPOLIS      CLOUDY    77  73  87 SE9       30.13S
ANDREWS AFB    PTSUNNY   80  78  96 S10       30.12S
PHILADELPHIA   CLOUDY    81  70  69 SE7       30.16R
HENDERSON NC   MOSUNNY   79  69  72 S8        30.14S
GREENSBORO     PTSUNNY   79  67  66 W9        30.14S
ROCKY MOUNT    MOSUNNY   84  73  69 S8        30.15R
$$

VAZ100-061600-
MARINE

STATION/POSITION TIME  TEMP    WIND        PRES    WAVE   SWELL
                       AIR SEA DIR/SP/G            HT/PER HT/PER
                 (UTC) (F)     (DEG/KT/KT) (MB)    (FT/S) (FT/S)
BRANDYWINE LGT   1400   74 75  170/ 10/ 11 1021.1R
CAPE MAY NJ      1400   76 77  160/ 10/ 14 1020.6R
LEWES DE         1400   80 73  180/  3/  9 1020.5R
15NM E FENWICK I 1450   76 74              1020.7R   2/ 6
OCEAN-CITY-INLET 1400   76 76  200/  4/  6 1020.6R
WACHAPREAGUE VA  1400   79 80  140/  7/ 10 1020.5F
THOMAS POINT MD  1400          160/  4       N/A
GOOSES REEF MD   1500   79 78  170/ 10/ 12 1021.2S
COVE POINT MD    1400   77     190/ 11/ 12 1021.0R
SOLOMONS ISLAND  1400      81                N/A
BISHOPS HEAD MD  1400   78     150/ 10/ 12 1020.3R
PINEY POINT MD   1400          180/  5/  6   N/A
CAMBRIDGE MD     1400   80 79  170/  5/  8 1020.3R
LEWISETTA VA     1400   79 81  190/  7/  8 1019.9F
RAPPAHANNOCK LGT 1400          150/  9/ 10 1020.8F
STINGRAY PT      1500   80 80  170/ 10/ 12 1020.5R   2/ 3
YORK RVR RNG VA  1400   78     180/ 10/ 11 1019.7S
YORKTOWN VA      1400   79 80  150/  6/  8 1019.9F
JAMESTOWN VA     1500   80 82  180/  6/  8   N/A
DOMINION TERM VA 1400   79     180/  6/  8 1020.1F
KIPTOPEKE VA     1400      82  190/  8/  9   N/A
CHES BAY BRIDGE  1400   80 77  150/  6/  6 1019.9F
CAPE HENRY VA    1400   79     120/  6/  9   N/A
CHESAPEAKE LGHT  1400   77     190/ 10/ 11 1021.0F
WILLOUBY STN VA  1400   80     190/  8/  8 1021.1F
CAPE HENRY BUOY  1428      78                N/A     2/ 8
1ST LANDING BUOY 1500      80              1020.0S   1/ 3
CAPE CHARLES BUO 1426      77                N/A     2/13   2/13
OFFSHORE WE BUOY 1411      77                N/A     2/ 8   2/ 8
64NM E OF VA BCH 1450   78 78  210/  8/ 10 1020.7F   3/ 9   2/ 9
DUCK PIER NC     1400   81 78  220/  8/ 12   N/A
44100 DUCK FRF   1424      79                N/A     2/ 9
44056 DUCK FRF   1411      77                N/A     2/13   2/13
OREGON INLET NC  1400   81 81  190/ 11/ 12 1021.4R
HATTERAS NC      1400   81 79  170/  6/ 10 1021.5R
DIAMOND SHLS NC  1450   81 82  190/ 12/ 14 1021.5F   3/ 5   2/ 8
CAPE LOOKOUT NC  1500   78     200/ 18/ 22 1021.4F
$$


USA.gov is the U.S. government's official web portal to all federal, state and local government web resources and services.